KB1GNF Weather Reports


Display with metric or nautical units.
time (UTC)temp
F
wind
direction
speed
MPH
gust
MPH
rain 1hr
in
rain 24hr
in
rain mn
in
humidity
%
barometer
mb
20260903182505 76 252 1.0 4.0 0.00 0.03 0.03 82 1012.8
20260903182005 76 226 1.0 5.0 0.00 0.03 0.03 82 1012.8
20260903181514 76 176 2.0 5.0 0.00 0.03 0.03 81 1012.8
20260903181010 76 183 2.0 5.0 0.00 0.03 0.03 81 1012.8
20260903180510 76 196 2.0 4.0 0.00 0.03 0.03 81 1012.9
20260903180033 77 86 1.0 6.0 0.00 0.03 0.03 80 1012.9
20260903175511 77 228 3.0 6.0 0.00 0.03 0.03 80 1012.8
20260903175014 77 89 1.0 4.0 0.00 0.03 0.03 82 1012.7
20260903174528 76 96 1.0 4.0 0.00 0.03 0.03 82 1012.8
20260903174018 76 78 1.0 3.0 0.00 0.03 0.03 84 1012.9
20260903173514 75 96 1.0 4.0 0.00 0.03 0.03 84 1012.9
20260903173031 74 117 1.0 4.0 0.00 0.03 0.03 84 1013.0
20260903172514 74 85 2.0 6.0 0.00 0.03 0.03 83 1013.1
20260903172006 75 98 3.0 6.0 0.00 0.03 0.03 82 1013.3
20260903171512 75 171 2.0 5.0 0.00 0.03 0.03 83 1013.3
20260903171011 75 81 2.0 5.0 0.00 0.03 0.03 83 1013.4
20260903170506 75 173 2.0 7.0 0.00 0.03 0.03 83 1013.5
20260903170021 75 176 3.0 8.0 0.00 0.03 0.03 82 1013.6
20260903165511 75 239 3.0 8.0 0.00 0.03 0.03 86 1013.6
20260903165012 74 146 1.0 5.0 0.00 0.03 0.03 84 1013.6
20260903164526 73 165 2.0 6.0 0.00 0.03 0.03 85 1013.7
20260903164013 73 191 3.0 6.0 0.00 0.03 0.03 85 1013.8
20260903163517 73 198 1.0 4.0 0.00 0.03 0.03 85 1013.9
20260903163031 72 192 1.0 5.0 0.00 0.03 0.03 86 1013.9
20260903162517 72 234 1.0 5.0 0.00 0.03 0.03 86 1013.8
20260903162014 72 219 3.0 4.0 0.00 0.03 0.03 85 1013.8
20260903161536 72 189 2.0 5.0 0.00 0.03 0.03 86 1013.9
20260903161019 72 205 1.0 6.0 0.00 0.03 0.03 86 1013.9
20260903160516 72 211 2.0 7.0 0.00 0.03 0.03 86 1013.9
20260903160045 71 195 4.0 7.0 0.00 0.03 0.03 87 1014.0
20260903155510 71 171 3.0 6.0 0.00 0.03 0.03 87 1014.0
20260903155010 70 163 1.0 5.0 0.00 0.03 0.03 87 1014.1
20260903154504 70 172 2.0 5.0 0.00 0.03 0.03 88 1014.1
20260903154004 70 154 0.0 4.0 0.00 0.03 0.03 89 1013.9
20260903153504 69 197 1.0 4.0 0.00 0.03 0.03 89 1013.9
20260903153003 69 153 1.0 5.0 0.00 0.03 0.03 89 1013.9
20260903152506 68 204 2.0 5.0 0.00 0.03 0.03 89 1014.0
20260903152004 68 203 1.0 5.0 0.00 0.03 0.03 90 1014.1
20260903151508 68 211 1.0 5.0 0.00 0.03 0.03 90 1014.2
20260903151005 68 245 2.0 5.0 0.00 0.03 0.03 90 1014.4
20260903150506 67 158 2.0 5.0 0.00 0.03 0.03 90 1014.4
20260903150023 67 152 2.0 5.0 0.00 0.03 0.03 91 1014.6
20260903145505 67 195 0.0 3.0 0.00 0.03 0.03 91 1014.7
20260903145013 66 193 0.0 2.0 0.00 0.03 0.03 92 1014.7
20260903144522 66 203 1.0 2.0 0.00 0.03 0.03 92 1014.7
20260903144012 66 162 1.0 2.0 0.00 0.03 0.03 93 1014.7
20260903143511 65 146 0.0 2.0 0.00 0.03 0.03 93 1014.5
20260903143011 65 200 0.0 2.0 0.00 0.03 0.03 93 1014.5
20260903142504 65 219 1.0 3.0 0.00 0.03 0.03 94 1014.6
20260903142003 65 199 0.0 3.0 0.00 0.03 0.03 94 1014.7
20260903141512 64 163 0.0 2.0 0.00 0.03 0.03 94 1014.7
20260903141004 64 77 0.0 1.0 0.00 0.03 0.03 94 1014.7
20260903140504 64 211 0.0 4.0 0.00 0.03 0.03 94 1014.8
20260903140009 64 232 2.0 4.0 0.00 0.03 0.03 94 1014.7
20260903135507 64 217 1.0 4.0 0.00 0.03 0.03 95 1014.6
20260903135012 64 237 2.0 4.0 0.00 0.03 0.03 95 1014.6
20260903134517 63 202 0.0 3.0 0.00 0.03 0.03 95 1014.6
20260903134011 63 200 0.0 2.0 0.00 0.03 0.03 95 1014.6
20260903133508 63 215 0.0 3.0 0.00 0.03 0.03 95 1014.8
20260903133028 63 228 1.0 3.0 0.00 0.03 0.03 95 1014.8
20260903132513 63 200 1.0 2.0 0.00 0.03 0.03 96 1014.9
20260903132012 63 185 1.0 3.0 0.00 0.03 0.03 95 1014.9
20260903131528 63 245 1.0 3.0 0.00 0.03 0.03 96 1015.1
20260903131004 62 223 1.0 3.0 0.00 0.03 0.03 96 1015.0
20260903130503 62 225 1.0 4.0 0.00 0.03 0.03 96 1015.0
20260903130005 62 191 2.0 4.0 0.00 0.03 0.03 96 1015.1
20260903125510 62 200 1.0 3.0 0.00 0.03 0.03 96 1015.0
20260903125005 62 197 1.0 4.0 0.00 0.03 0.03 96 1015.1
20260903124512 62 207 1.0 5.0 0.00 0.03 0.03 96 1015.1
20260903124005 62 232 1.0 5.0 0.00 0.03 0.03 96 1015.3
20260903123512 62 221 2.0 5.0 0.00 0.03 0.03 96 1015.4
20260903123018 62 262 1.0 3.0 0.00 0.03 0.03 96 1015.5
20260903122512 62 176 1.0 3.0 0.00 0.03 0.03 96 1015.6
20260903122013 61 233 1.0 4.0 0.00 0.03 0.03 96 1015.5
20260903121525 62 164 0.0 4.0 0.00 0.03 0.03 96 1015.5
20260903121015 61 221 1.0 4.0 0.00 0.03 0.03 96 1015.6
20260903120511 61 201 2.0 3.0 0.00 0.03 0.03 96 1015.6
20260903120027 61 247 0.0 1.0 0.00 0.03 0.03 96 1015.6
20260903115506 61 243 0.0 2.0 0.01 0.03 0.03 96 1015.7
20260903115003 61 199 0.0 2.0 0.01 0.03 0.03 96 1015.7
20260903114511 61 257 1.0 2.0 0.01 0.03 0.03 96 1015.7
20260903114003 61 214 1.0 2.0 0.01 0.03 0.03 96 1015.7
20260903113504 61 225 0.0 0.0 0.01 0.03 0.03 96 1015.6
20260903113024 61 226 0.0 0.0 0.01 0.03 0.03 96 1015.6
20260903112511 61 211 0.0 0.0 0.01 0.03 0.03 96 1015.6
20260903112009 61 216 0.0 0.0 0.01 0.03 0.03 96 1015.6
20260903111526 61 240 0.0 0.0 0.01 0.03 0.03 96 1015.6
20260903111011 61 167 0.0 0.0 0.01 0.03 0.03 96 1015.7
20260903110514 61 166 0.0 0.0 0.01 0.03 0.03 96 1015.7
20260903110029 61 166 0.0 0.0 0.01 0.03 0.03 96 1015.7
20260903105513 61 166 0.0 0.0 0.00 0.02 0.02 96 1015.7
20260903105015 61 166 0.0 0.0 0.00 0.02 0.02 96 1015.6
20260903104530 61 166 0.0 0.0 0.00 0.02 0.02 96 1015.6
20260903104004 61 166 0.0 0.0 0.00 0.02 0.02 96 1015.5
20260903103503 61 165 0.0 0.0 0.00 0.02 0.02 96 1015.3
20260903103014 61 172 0.0 0.0 0.00 0.02 0.02 96 1015.4
20260903102508 61 172 0.0 0.0 0.00 0.02 0.02 96 1015.4
20260903102008 61 172 0.0 0.0 0.00 0.02 0.02 96 1015.4
20260903101524 61 172 0.0 0.0 0.00 0.02 0.02 96 1015.5
20260903101012 61 172 0.0 0.0 0.00 0.02 0.02 96 1015.5
20260903100511 61 172 0.0 0.0 0.00 0.02 0.02 95 1015.5
20260903100028 61 172 0.0 0.0 0.00 0.02 0.02 95 1015.4
20260903095515 61 172 0.0 0.0 0.00 0.02 0.02 95 1015.4
20260903095012 61 173 0.0 0.0 0.00 0.02 0.02 95 1015.5
20260903094535 61 175 0.0 0.0 0.00 0.02 0.02 95 1015.4
20260903094017 61 178 0.0 1.0 0.00 0.02 0.02 95 1015.6
20260903093516 61 177 0.0 2.0 0.00 0.02 0.02 95 1015.6
20260903093041 61 207 0.0 2.0 0.00 0.02 0.02 95 1015.6
20260903092518 61 225 0.0 3.0 0.00 0.02 0.02 95 1015.6
20260903092006 61 212 0.0 3.0 0.00 0.02 0.02 95 1015.5
20260903091516 61 159 1.0 4.0 0.01 0.02 0.02 95 1015.4
20260903091008 61 153 2.0 4.0 0.01 0.02 0.02 94 1015.5
20260903090506 61 186 1.0 3.0 0.01 0.02 0.02 94 1015.6
20260903090031 61 136 1.0 3.0 0.01 0.02 0.02 94 1015.7
20260903085511 61 158 1.0 1.0 0.01 0.02 0.02 94 1015.9
20260903085009 61 160 0.0 3.0 0.01 0.02 0.02 94 1016.0
20260903084530 61 205 0.0 3.0 0.01 0.02 0.02 93 1016.1
20260903084014 61 174 0.0 2.0 0.01 0.02 0.02 93 1016.1
20260903083516 61 242 0.0 2.0 0.01 0.02 0.02 93 1016.2
20260903083028 61 203 0.0 2.0 0.01 0.02 0.02 92 1016.1
20260903082516 61 227 0.0 2.0 0.01 0.02 0.02 92 1016.0
20260903082018 61 205 0.0 2.0 0.01 0.02 0.02 92 1016.1
20260903081533 61 230 1.0 2.0 0.00 0.01 0.01 91 1016.1
20260903081016 62 210 0.0 1.0 0.00 0.01 0.01 92 1016.1
20260903080508 62 210 0.0 0.0 0.00 0.01 0.01 92 1016.0
20260903080028 62 210 0.0 0.0 0.00 0.01 0.01 91 1015.9
20260903075511 62 210 0.0 0.0 0.00 0.01 0.01 91 1016.0
20260903075009 62 210 0.0 0.0 0.00 0.01 0.01 91 1016.1
20260903074527 62 210 0.0 1.0 0.00 0.01 0.01 91 1016.2
20260903074016 62 177 0.0 1.0 0.00 0.01 0.01 91 1015.9
20260903073513 62 207 0.0 1.0 0.00 0.01 0.01 91 1015.8
20260903073037 62 105 0.0 1.0 0.00 0.01 0.01 91 1016.0
20260903072514 62 158 0.0 1.0 0.00 0.01 0.01 90 1016.1
20260903072015 62 219 0.0 1.0 0.00 0.01 0.01 91 1016.4
20260903071536 62 229 0.0 1.0 0.00 0.01 0.01 91 1016.4
20260903071015 61 259 0.0 1.0 0.00 0.01 0.01 91 1016.4
20260903070516 61 254 0.0 1.0 0.01 0.01 0.01 91 1016.5
20260903070032 61 253 0.0 1.0 0.01 0.01 0.01 91 1016.5
20260903065518 62 264 0.0 1.0 0.01 0.01 0.01 91 1016.6
20260903065010 62 264 0.0 1.0 0.01 0.01 0.01 91 1016.3
20260903064521 62 264 0.0 2.0 0.01 0.01 0.01 91 1016.3
20260903064010 62 205 0.0 2.0 0.01 0.01 0.01 90 1015.9
20260903063516 62 203 1.0 2.0 0.01 0.01 0.01 90 1015.9
20260903063028 62 162 1.0 2.0 0.01 0.01 0.01 89 1016.1
20260903062515 62 176 0.0 0.0 0.01 0.01 0.01 89 1016.5
20260903062016 62 162 0.0 0.0 0.01 0.01 0.01 88 1016.7
20260903061542 63 162 0.0 3.0 0.01 0.01 0.01 87 1016.5
20260903061016 63 129 1.0 4.0 0.01 0.01 0.01 86 1016.4
20260903060516 63 240 2.0 4.0 0.00 0.00 0.00 84 1016.7
20260903060033 63 162 1.0 5.0 0.00 0.00 0.00 84 1017.0
20260903055505 64 209 2.0 5.0 0.00 0.00 0.00 83 1017.2
20260903055009 64 193 2.0 5.0 0.00 0.00 0.00 83 1017.3
20260903054502 64 198 2.0 5.0 0.00 0.00 0.00 82 1017.5
20260903054002 64 189 3.0 5.0 0.00 0.00 0.00 82 1017.5
20260903053501 64 212 3.0 5.0 0.00 0.00 0.00 81 1017.6
20260903053003 64 196 2.0 5.0 0.00 0.00 0.00 81 1017.8
20260903052505 64 197 3.0 5.0 0.00 0.00 0.00 80 1017.8
20260903052006 64 184 3.0 5.0 0.00 0.00 0.00 81 1017.8
20260903051504 64 214 1.0 4.0 0.00 0.00 0.00 81 1017.8
20260903051005 65 218 3.0 4.0 0.00 0.00 0.00 81 1017.8
20260903050505 65 218 2.0 3.0 0.00 0.00 0.00 81 1017.8
20260903050024 65 208 2.0 3.0 0.00 0.00 0.00 80 1017.8
20260903045506 65 226 0.0 3.0 0.00 0.00 0.00 80 1017.8
20260903045004 65 212 2.0 5.0 0.00 0.00 0.00 80 1017.8
20260903044514 65 207 3.0 6.0 0.00 0.00 0.00 79 1017.8
20260903044006 65 203 3.0 6.0 0.00 0.00 0.00 79 1017.7
20260903043508 65 121 2.0 4.0 0.00 0.00 0.00 80 1017.8
20260903043024 65 198 0.0 5.0 0.00 0.00 0.00 80 1018.0
20260903042502 65 210 2.0 5.0 0.00 0.00 0.00 79 1018.0
20260903042002 65 180 2.0 4.0 0.00 0.00 0.00 79 1017.9
20260903041508 65 221 2.0 4.0 0.00 0.00 0.00 80 1018.1
20260903041004 65 211 2.0 4.0 0.00 0.00 0.00 79 1018.1
20260903040504 65 149 1.0 4.0 0.00 0.00 0.00 79 1018.4
20260903040004 66 221 0.0 4.0 0.00 0.00 0.00 79 1018.3
20260903035501 66 217 1.0 5.0 0.00 0.00 0.00 79 1018.2
20260903035004 66 240 1.0 5.0 0.00 0.00 0.00 80 1018.2
20260903034515 66 267 2.0 5.0 0.00 0.00 0.00 80 1018.1
20260903034006 66 224 1.0 5.0 0.00 0.00 0.00 80 1018.1
20260903033506 66 203 1.0 3.0 0.00 0.00 0.00 80 1018.1
20260903033021 66 212 1.0 6.0 0.00 0.00 0.00 80 1018.1
20260903032513 66 188 3.0 6.0 0.00 0.00 0.00 79 1018.2
20260903032011 66 226 1.0 5.0 0.00 0.00 0.00 80 1018.3
20260903031525 66 217 1.0 5.0 0.00 0.00 0.00 79 1018.3
20260903031002 66 209 1.0 4.0 0.00 0.00 0.00 79 1018.3
20260903030504 66 236 0.0 5.0 0.00 0.00 0.00 79 1018.4
20260903030004 66 186 2.0 5.0 0.00 0.00 0.00 78 1018.4
20260903025506 66 242 2.0 6.0 0.00 0.00 0.00 79 1018.5
20260903025005 66 193 4.0 6.0 0.00 0.00 0.00 78 1018.5
20260903024506 66 211 4.0 7.0 0.00 0.00 0.00 78 1018.6
20260903024005 66 198 3.0 7.0 0.00 0.00 0.00 79 1018.8
20260903023510 66 190 3.0 5.0 0.00 0.00 0.00 78 1018.7
20260903023013 66 182 3.0 5.0 0.00 0.00 0.00 78 1018.8
20260903022507 66 210 2.0 5.0 0.00 0.00 0.00 79 1018.9
20260903022005 66 173 1.0 5.0 0.00 0.00 0.00 78 1019.0
20260903021523 66 144 1.0 5.0 0.00 0.00 0.00 78 1018.9
20260903021010 67 153 2.0 4.0 0.00 0.00 0.00 78 1019.1
20260903020509 67 213 2.0 4.0 0.00 0.00 0.00 78 1019.4
20260903020032 67 217 2.0 3.0 0.00 0.00 0.00 78 1019.4
20260903015505 67 194 0.0 3.0 0.00 0.00 0.00 79 1019.6
20260903015002 67 209 0.0 3.0 0.00 0.00 0.00 80 1019.5
20260903014509 67 181 2.0 3.0 0.00 0.00 0.00 79 1019.2
20260903014002 67 205 0.0 5.0 0.00 0.00 0.00 79 1019.4
20260903013500 67 207 2.0 5.0 0.00 0.00 0.00 79 1019.2
20260903013010 67 220 3.0 5.0 0.00 0.00 0.00 79 1019.1
20260903012506 67 186 1.0 6.0 0.00 0.00 0.00 80 1019.4
20260903012006 67 203 2.0 6.0 0.00 0.00 0.00 80 1019.4
20260903011516 67 203 1.0 2.0 0.00 0.00 0.00 81 1019.3
20260903011007 67 252 0.0 2.0 0.00 0.00 0.00 81 1019.5
20260903010509 67 129 1.0 4.0 0.00 0.00 0.00 81 1019.5
20260903010024 67 216 2.0 4.0 0.00 0.00 0.00 81 1019.5
20260903005515 67 211 1.0 5.0 0.00 0.00 0.00 83 1019.5
20260903005010 67 204 0.0 5.0 0.00 0.00 0.00 85 1019.2
20260903004541 67 215 0.0 4.0 0.00 0.00 0.00 88 1018.7
20260903004014 67 187 1.0 4.0 0.00 0.00 0.00 89 1018.5
20260903003504 67 148 1.0 3.0 0.00 0.00 0.00 90 1018.6
20260903003005 67 159 0.0 2.0 0.00 0.00 0.00 90 1018.8
20260903002503 67 171 0.0 4.0 0.00 0.00 0.00 90 1018.8
20260903002006 67 158 2.0 4.0 0.00 0.00 0.00 90 1018.5
20260903001516 67 160 0.0 2.0 0.00 0.00 0.00 90 1018.6
20260903001007 67 178 0.0 0.0 0.00 0.00 0.00 90 1018.8
20260903000506 67 183 0.0 0.0 0.00 0.00 0.00 90 1019.0
20260903000018 67 198 0.0 0.0 0.00 0.00 0.00 90 1018.9
20260902235507 68 195 0.0 0.0 0.00 0.00 0.00 90 1019.1
20260902235009 68 195 0.0 1.0 0.00 0.00 0.00 90 1019.0
20260902234526 68 194 0.0 1.0 0.00 0.00 0.00 89 1019.0
20260902234014 68 155 0.0 1.0 0.00 0.00 0.00 89 1019.1
20260902233511 68 155 0.0 1.0 0.00 0.00 0.00 89 1019.2
20260902233030 68 167 0.0 1.0 0.00 0.00 0.00 89 1019.2
20260902232519 68 175 0.0 1.0 0.00 0.00 0.00 89 1019.3
20260902232002 68 164 0.0 1.0 0.00 0.00 0.00 89 1019.6
20260902231513 68 207 0.0 1.0 0.00 0.00 0.00 88 1019.6
20260902231005 68 167 0.0 3.0 0.00 0.00 0.00 88 1019.7
20260902230508 68 153 0.0 3.0 0.00 0.00 0.00 88 1019.7
20260902230016 69 207 0.0 1.0 0.00 0.00 0.00 88 1019.9
20260902225506 69 180 0.0 1.0 0.00 0.00 0.00 88 1020.1
20260902225009 69 176 0.0 0.0 0.00 0.00 0.00 87 1020.2
20260902224518 69 184 0.0 0.0 0.00 0.00 0.00 87 1020.4
20260902224010 69 243 0.0 1.0 0.00 0.00 0.00 87 1020.5
20260902223514 69 244 0.0 1.0 0.00 0.00 0.00 87 1020.4
20260902223035 69 100 0.0 0.0 0.00 0.00 0.00 86 1020.4
20260902222514 69 101 0.0 1.0 0.00 0.00 0.00 86 1020.2
20260902222015 69 101 0.0 1.0 0.00 0.00 0.00 86 1020.2
20260902221530 69 240 0.0 1.0 0.00 0.00 0.00 85 1020.4
20260902221016 69 240 0.0 1.0 0.00 0.00 0.00 85 1020.4
20260902220506 69 239 0.0 1.0 0.00 0.00 0.00 85 1020.4
20260902220010 69 238 0.0 1.0 0.00 0.00 0.00 85 1020.4
20260902215505 69 238 0.0 1.0 0.00 0.00 0.00 85 1020.4
20260902215005 70 224 0.0 0.0 0.00 0.00 0.00 85 1020.3
20260902214526 70 250 0.0 0.0 0.00 0.00 0.00 84 1020.2
20260902214010 70 252 0.0 0.0 0.00 0.00 0.00 84 1020.3
20260902213509 70 252 0.0 0.0 0.00 0.00 0.00 83 1020.4
20260902213029 70 252 0.0 1.0 0.00 0.00 0.00 83 1020.2
20260902212510 70 252 0.0 1.0 0.00 0.00 0.00 84 1020.3
20260902212012 70 231 0.0 1.0 0.00 0.00 0.00 83 1020.2
20260902211531 70 233 0.0 1.0 0.00 0.00 0.00 84 1020.3
20260902211017 70 233 0.0 1.0 0.00 0.00 0.00 83 1020.3
20260902210516 70 233 0.0 1.0 0.00 0.00 0.00 82 1020.3
20260902210034 71 233 0.0 1.0 0.00 0.00 0.00 80 1020.3
20260902205518 71 233 0.0 1.0 0.00 0.00 0.00 80 1020.3
20260902205016 71 233 0.0 1.0 0.00 0.00 0.00 80 1020.4
20260902204512 71 227 0.0 4.0 0.00 0.00 0.00 79 1020.2
20260902204007 71 215 1.0 4.0 0.00 0.00 0.00 78 1020.1
20260902203508 72 199 2.0 4.0 0.00 0.00 0.00 77 1020.0
20260902203031 72 165 0.0 4.0 0.00 0.00 0.00 79 1020.0
20260902202510 72 191 1.0 3.0 0.00 0.00 0.00 78 1020.2
20260902202010 72 174 1.0 3.0 0.00 0.00 0.00 78 1020.2
20260902201526 72 160 1.0 4.0 0.00 0.00 0.00 78 1020.3
20260902201012 72 158 1.0 4.0 0.00 0.00 0.00 77 1020.3
20260902200514 72 175 1.0 4.0 0.00 0.00 0.00 77 1020.5
20260902200030 72 213 1.0 3.0 0.00 0.00 0.00 77 1020.6
20260902195514 71 158 1.0 4.0 0.00 0.00 0.00 78 1020.7
20260902195013 71 158 1.0 7.0 0.00 0.00 0.00 77 1020.9
20260902194532 72 200 3.0 7.0 0.00 0.00 0.00 76 1020.8
20260902194018 72 176 1.0 6.0 0.00 0.00 0.00 78 1020.7
20260902193518 72 159 2.0 6.0 0.00 0.00 0.00 77 1020.7
20260902193019 72 206 2.0 4.0 0.00 0.00 0.00 76 1020.7
20260902192509 72 153 0.0 3.0 0.00 0.00 0.00 77 1020.8
20260902192010 72 77 0.0 3.0 0.00 0.00 0.00 77 1020.8
20260902191536 72 215 1.0 4.0 0.00 0.00 0.00 77 1020.8
20260902191011 72 154 1.0 5.0 0.00 0.00 0.00 76 1020.8
20260902190516 71 205 2.0 5.0 0.00 0.00 0.00 76 1020.9
20260902190032 72 148 1.0 4.0 0.00 0.00 0.00 76 1021.0
20260902185503 72 203 2.0 4.0 0.00 0.00 0.00 74 1021.2
20260902185003 72 242 0.0 4.0 0.00 0.00 0.00 76 1021.2
20260902184519 72 89 0.0 5.0 0.00 0.01 0.00 75 1021.1
20260902184004 72 245 0.0 5.0 0.00 0.01 0.00 76 1021.0
20260902183506 72 215 2.0 8.0 0.00 0.01 0.00 75 1021.0
20260902183014 72 171 3.0 8.0 0.00 0.02 0.00 75 1021.0